Theta_e
284 284 284 284 284 284 283 283 282 282 282 281 281 281 281 281 281 281 281 281 281 281 281 281 280 280 280 280 280 280 280 279 279 279 279 278 278 278 278 278 279 279 279 280 281 283 284 286 286 287 288 289 289 289 291 293 294 294 294 297 301 301 300 299 300 301 300 298 297 298 299 301 302 303 305 305 306 307 308 309 310 310 310 311 312
283 284 284 284 284 284 283 283 283 282 282 282 281 280 281 281 281 281 281 281 281 281 281 280 280 280 280 280 280 279 279 279 279 279 279 278 278 278 278 278 278 278 278 278 279 280 282 283 284 285 286 287 288 288 288 289 291 293 293 293 295 297 298 299 299 299 298 297 296 295 296 297 298 299 301 302 303 304 305 307 308 308 309 310 311
284 283 284 284 284 284 283 283 283 283 283 282 281 280 280 280 280 281 281 281 280 281 280 280 280 280 280 280 280 279 279 279 279 279 279 279 278 278 278 278 278 278 278 278 278 279 280 281 282 283 284 284 286 287 287 286 287 289 291 291 292 293 294 296 298 298 297 296 296 296 295 295 296 295 296 299 300 302 303 304 305 306 307 308 309
286 284 283 284 284 284 283 283 283 283 282 281 280 280 280 280 280 280 280 280 281 281 280 280 280 280 280 280 279 279 279 279 279 279 279 279 279 278 278 278 278 278 278 278 278 278 278 279 280 281 282 282 283 284 285 284 284 285 287 290 291 291 291 292 294 297 298 296 295 294 293 294 297 295 294 295 297 299 301 302 303 304 305 306 307
286 285 284 284 284 284 284 283 283 283 282 280 280 280 280 280 280 280 280 280 281 281 280 280 280 280 279 279 279 279 279 279 279 279 279 279 279 278 278 278 278 278 277 277 278 278 278 278 279 280 280 281 281 281 282 282 282 283 284 287 289 290 290 291 291 292 295 297 296 293 292 293 295 293 292 294 294 296 299 300 301 302 302 303 305
285 284 284 284 284 284 284 283 283 283 282 280 280 280 280 280 280 280 280 280 281 281 280 280 279 279 279 279 279 278 278 278 278 278 278 278 278 278 278 278 278 278 277 277 277 277 278 278 278 278 279 279 279 279 280 281 282 282 282 283 285 287 288 290 290 290 291 293 294 294 294 293 292 290 292 293 292 293 296 297 299 300 301 301 302
284 284 283 283 284 284 284 284 283 283 282 280 280 280 280 280 280 280 280 280 280 280 280 279 279 279 278 278 278 278 278 278 278 278 278 278 278 278 278 278 278 277 277 277 277 277 277 277 277 278 278 278 279 279 279 279 280 281 281 281 282 284 286 286 288 290 290 290 291 291 291 292 292 291 292 293 292 291 292 293 295 297 298 299 300
285 285 283 283 284 284 284 284 283 283 282 280 280 280 279 280 279 279 279 279 279 279 279 279 278 278 278 278 278 278 278 278 278 278 278 278 278 278 278 278 278 277 277 277 277 277 277 277 277 277 277 278 278 278 278 278 278 279 280 281 281 282 283 283 285 287 289 290 290 290 289 290 291 291 291 293 293 292 290 290 291 293 294 296 298
284 284 284 283 284 284 284 284 283 283 281 280 279 279 279 279 279 279 279 279 278 278 278 278 278 278 278 278 277 278 278 278 278 278 278 278 277 277 277 277 277 277 277 277 277 277 277 277 277 277 277 277 277 278 278 278 278 278 279 279 280 280 280 281 283 284 285 288 289 290 290 289 289 289 289 290 292 293 291 290 290 290 291 293 296
284 283 283 284 284 284 284 284 283 283 281 279 279 279 279 279 279 279 278 278 278 278 278 278 278 277 277 277 277 277 277 277 277 278 278 277 277 277 277 277 277 277 277 277 277 277 277 277 276 277 277 277 277 277 277 278 278 278 278 278 278 279 279 279 280 282 283 285 287 289 290 289 289 289 288 288 289 291 291 290 289 289 290 291 294
285 283 283 284 284 284 284 283 283 282 280 279 279 279 279 279 278 278 278 278 278 277 277 277 277 277 276 276 276 276 276 276 276 277 277 276 276 276 276 276 276 276 276 277 276 276 276 276 276 276 276 276 276 276 277 277 277 277 277 277 278 278 278 278 279 280 281 283 284 285 287 289 290 290 289 288 288 289 290 290 289 289 290 291 292
286 284 283 283 284 284 283 283 283 282 280 279 279 279 278 278 278 278 278 278 277 277 277 277 277 276 276 276 276 276 276 276 276 276 275 275 275 275 275 275 275 275 276 276 276 276 276 276 276 276 276 276 276 276 276 276 276 277 277 277 277 278 277 278 278 278 278 280 281 282 283 286 289 290 290 289 288 288 289 289 288 288 289 289 290
286 285 283 282 282 283 283 283 283 281 280 279 279 278 278 278 278 277 277 277 277 277 277 276 276 276 276 276 276 276 275 275 275 275 275 275 274 275 274 275 275 275 275 275 276 276 276 276 276 276 276 276 276 276 276 276 276 276 276 276 277 277 277 277 277 277 277 278 279 280 281 283 286 288 290 290 289 289 289 289 288 287 287 288 288
285 284 283 282 282 282 282 283 283 281 279 279 279 278 278 278 278 277 277 277 277 276 276 276 276 276 276 276 275 275 275 275 275 275 274 274 274 274 274 274 274 274 275 275 275 275 275 275 275 275 275 275 275 275 275 275 275 275 275 276 276 276 276 277 277 277 277 277 277 278 279 280 282 285 287 289 290 290 290 290 290 288 287 287 287
284 284 283 282 282 282 282 282 282 280 279 279 279 278 278 278 278 277 277 276 276 276 276 275 275 276 276 276 275 275 275 275 274 274 274 274 274 274 274 274 274 274 274 274 274 274 275 275 275 275 275 275 275 275 275 275 275 275 275 275 275 275 276 276 276 276 277 277 277 277 277 278 279 281 283 286 289 290 290 290 291 290 289 288 287
284 284 283 282 282 282 282 282 282 280 279 279 279 278 278 278 277 277 276 276 276 275 275 275 275 275 276 276 275 275 275 274 274 274 274 274 274 273 273 273 274 274 274 274 273 273 273 274 274 274 274 275 274 274 275 275 275 274 274 274 275 275 275 275 275 276 276 276 276 276 276 277 278 279 280 282 285 288 289 290 290 290 291 291 289
284 284 282 281 281 281 281 282 281 280 279 279 278 278 278 277 277 276 276 276 276 275 275 275 275 275 275 275 275 275 274 274 274 273 273 273 273 273 273 273 273 273 273 273 272 272 272 272 272 273 273 274 274 274 274 274 274 274 274 274 274 274 275 275 275 275 275 275 276 276 276 276 277 277 278 279 281 284 287 289 289 289 290 291 291
283 283 281 280 280 280 281 281 281 280 279 279 278 278 278 277 277 276 276 276 275 275 275 275 275 275 275 275 275 274 274 273 273 273 273 273 273 273 273 273 273 273 273 272 272 272 271 271 271 271 272 272 273 274 274 274 274 274 274 274 274 274 274 274 274 274 275 275 275 275 275 275 276 276 277 278 279 281 284 287 288 288 289 290 291
283 282 281 280 280 280 281 281 280 280 279 279 278 278 277 277 276 276 276 275 275 275 275 275 275 275 275 274 274 274 273 273 273 272 272 272 272 272 272 272 272 272 272 272 271 271 271 271 271 271 271 272 272 273 273 274 274 274 274 274 274 274 274 274 274 274 274 274 274 274 274 275 275 275 276 277 277 278 280 283 286 288 288 288 289
283 282 281 280 280 280 280 280 280 279 279 279 278 278 277 277 276 276 275 275 275 275 274 274 274 275 274 274 274 273 273 272 272 272 272 272 272 272 272 272 272 272 272 271 271 270 270 270 270 271 271 271 272 272 273 273 273 273 273 274 274 274 274 274 274 274 274 274 274 274 274 274 274 274 275 276 276 276 277 279 282 286 288 288 289
282 282 281 280 280 280 280 280 280 279 279 278 278 277 277 276 276 275 275 275 274 274 274 274 274 274 274 274 273 272 272 272 272 272 272 272 271 271 271 271 271 271 271 270 270 269 269 270 270 270 271 271 271 271 272 272 272 273 273 273 273 274 273 273 273 273 273 273 273 273 274 274 274 274 274 275 275 275 276 277 279 281 285 288 289
282 282 281 280 279 279 279 280 279 278 278 278 277 277 276 276 276 275 275 275 274 274 274 274 274 274 274 273 272 272 272 271 271 271 271 271 271 270 270 271 271 270 270 269 269 269 269 269 270 270 270 270 270 270 271 271 271 272 272 272 273 273 273 273 273 273 273 273 273 273 273 273 273 273 274 274 274 275 275 276 277 278 281 285 288
282 281 280 280 279 279 279 279 278 278 278 277 277 277 276 276 276 275 275 274 274 274 274 274 274 273 273 272 272 271 271 271 271 271 271 270 270 270 270 270 270 269 269 269 269 269 269 269 269 269 269 269 269 269 270 270 271 271 271 271 272 272 272 272 272 272 273 273 273 273 273 273 273 273 273 273 274 274 274 275 276 277 279 280 284
281 281 280 279 279 278 278 277 277 277 277 277 277 276 276 276 275 275 275 274 274 274 274 274 273 273 272 271 271 271 271 271 271 270 270 269 269 269 269 269 269 268 268 268 268 268 268 268 268 268 268 268 269 269 269 269 270 270 270 271 271 271 272 272 272 272 272 272 272 272 272 273 273 273 273 273 273 273 274 275 276 277 278 279 280
281 280 279 278 278 277 277 277 277 277 277 277 277 276 276 276 275 275 275 274 274 273 273 273 272 272 271 271 271 271 270 270 270 269 269 269 268 268 268 268 268 268 268 268 268 268 268 268 268 268 268 268 268 268 269 269 269 269 270 270 270 271 271 271 271 272 272 272 272 272 272 272 272 272 272 272 273 273 273 274 275 275 276 278 279
280 280 279 278 277 277 277 277 277 277 277 276 276 276 276 275 275 275 274 274 273 273 273 272 272 271 271 271 271 270 270 270 269 269 268 268 268 268 268 268 267 267 267 267 267 267 267 267 267 267 267 267 268 268 268 268 269 269 269 269 269 270 270 271 271 271 271 271 271 271 271 271 271 272 272 272 272 272 273 273 274 274 275 276 278
280 279 279 278 277 277 276 276 277 276 276 276 276 276 275 275 275 274 274 273 273 273 272 272 271 271 271 270 270 270 270 269 268 268 268 267 267 267 267 267 266 266 266 266 267 267 267 266 266 266 266 266 267 267 268 268 268 268 269 268 268 269 270 270 270 270 271 271 271 271 271 271 271 271 271 271 272 272 273 273 274 274 275 275 276
279 279 278 278 277 277 276 276 276 276 276 276 276 275 275 275 275 274 274 273 273 273 272 271 271 270 270 270 270 270 269 268 268 267 267 267 267 267 266 266 266 266 266 266 267 266 266 266 266 266 266 266 266 267 267 268 268 268 268 268 268 268 269 269 270 270 270 270 270 270 270 270 271 271 271 271 271 272 272 273 273 274 275 276 276
279 278 278 277 277 276 276 276 276 276 276 275 275 275 275 275 274 274 273 273 272 272 271 271 270 270 270 270 269 269 268 268 267 266 266 266 266 266 265 265 266 266 266 266 266 266 265 265 265 265 265 265 266 266 267 267 267 267 267 268 268 269 269 269 270 270 270 270 270 270 270 270 270 270 271 271 271 271 271 272 273 273 274 275 275
278 278 277 277 276 276 275 275 275 275 275 275 275 275 275 274 274 273 273 272 272 271 270 270 270 270 270 269 269 268 267 267 266 266 266 266 265 265 265 265 266 266 266 266 265 265 265 265 265 265 265 265 265 265 265 266 267 267 268 269 269 269 270 270 270 270 270 270 270 270 270 270 270 270 270 270 271 271 272 272 272 273 273 273 274
278 278 277 277 276 275 275 275 275 275 275 274 275 275 274 274 273 272 272 272 271 270 270 269 269 269 269 268 268 267 266 266 266 266 265 265 265 265 265 265 266 266 266 265 265 264 264 264 264 264 264 264 264 264 264 266 267 268 269 269 269 270 270 270 270 270 270 270 270 270 270 270 270 270 270 270 271 271 271 272 272 272 273 273 273
279 278 277 277 276 276 275 274 274 274 274 274 275 274 273 273 272 272 272 271 270 269 269 269 269 269 268 267 267 266 266 266 266 265 265 264 264 264 265 265 265 265 265 264 264 264 264 264 264 264 263 263 263 264 264 266 267 268 269 269 269 270 270 270 270 270 270 270 270 270 270 270 270 270 270 270 270 271 271 271 272 272 272 273 273
279 278 278 277 277 276 275 275 275 275 275 275 274 273 273 272 272 272 271 270 269 269 269 269 268 268 267 267 266 266 265 265 265 265 264 264 264 264 265 265 264 264 264 264 264 263 263 263 263 263 263 263 263 264 264 266 267 268 268 269 269 269 269 270 270 270 270 270 270 270 270 270 270 270 270 270 270 270 270 271 271 272 272 273 273
278 278 277 277 276 275 275 275 275 275 275 274 273 273 272 272 271 271 270 269 269 268 268 268 268 267 266 266 265 265 265 265 264 264 264 264 264 264 264 264 264 263 263 263 263 263 263 263 262 263 263 263 263 264 265 266 267 268 268 269 269 269 269 269 270 270 270 270 270 270 270 270 270 270 270 270 269 269 270 270 270 271 271 272 272
278 278 277 276 275 275 274 275 275 275 274 273 272 272 272 271 271 270 269 269 268 268 268 267 267 266 266 265 265 265 265 264 264 264 264 263 264 264 264 263 263 263 263 262 262 262 262 262 262 262 263 263 263 263 264 266 267 267 268 269 269 269 269 269 269 269 269 269 269 269 269 269 270 270 270 270 270 270 270 270 270 270 271 271 272
278 278 277 276 275 275 275 275 274 273 273 272 272 271 271 270 270 269 268 268 267 267 267 266 266 265 265 265 264 264 264 264 264 264 263 263 264 264 263 263 262 262 262 262 261 261 262 262 262 262 262 262 262 263 264 265 266 267 268 268 268 268 268 268 268 268 268 268 268 268 268 269 269 269 269 269 270 270 270 270 271 271 271 271 272
278 277 276 276 276 275 274 274 273 272 272 271 271 271 270 269 269 268 268 267 267 266 266 266 265 265 264 264 264 264 264 264 264 263 263 263 263 263 263 262 262 261 261 261 261 261 261 261 261 261 261 262 262 262 263 265 265 266 267 267 268 268 268 268 268 268 268 268 269 269 269 269 269 269 269 269 270 270 271 271 272 272 272 272 272
276 276 276 275 275 274 273 273 272 271 271 271 270 270 269 268 268 267 267 266 266 266 265 265 264 264 263 263 263 263 263 263 263 263 263 263 263 262 262 262 261 261 260 260 260 260 260 261 261 261 261 262 262 262 263 264 265 266 267 267 267 268 268 268 268 269 269 269 269 269 269 269 269 269 269 270 270 271 271 272 272 272 273 273 273
276 276 275 275 274 273 273 272 271 271 270 270 270 269 268 268 267 267 266 266 266 265 265 264 264 263 263 263 263 263 263 263 263 263 263 263 262 262 262 261 261 260 260 259 259 260 260 260 260 261 261 262 262 262 262 263 264 266 266 267 267 268 268 268 268 269 269 269 269 269 269 269 270 270 270 271 271 271 272 272 272 272 272 272 273
276 276 275 275 273 272 272 271 270 270 270 270 269 268 268 267 266 266 266 265 265 265 264 264 263 263 262 262 262 262 262 262 262 262 262 262 262 261 261 261 260 259 259 259 259 259 259 260 260 261 261 261 261 261 262 263 264 265 266 267 267 268 268 268 268 268 268 269 269 269 269 269 270 271 271 271 272 272 272 272 272 272 272 272 273
275 275 275 274 273 272 271 270 270 270 270 269 269 268 267 266 266 266 265 265 265 264 264 263 262 262 262 262 262 262 262 262 262 262 262 262 261 261 261 260 259 259 259 259 259 259 259 260 260 260 261 261 261 261 262 263 264 265 266 267 267 267 268 268 268 268 268 268 268 269 269 269 270 270 271 271 272 272 272 273 273 273 273 273 273
274 274 274 273 272 271 270 270 270 270 269 269 268 267 266 266 265 265 265 265 264 264 263 263 262 262 262 262 262 262 262 262 261 261 261 261 261 261 260 259 259 258 258 258 258 259 259 259 260 260 260 260 261 261 262 262 263 264 265 266 267 267 268 268 268 269 269 269 269 269 269 270 270 270 270 271 271 272 272 272 273 273 273 274 274
273 273 273 272 271 270 270 270 270 269 269 268 267 266 266 265 265 265 265 264 264 263 263 262 262 262 262 262 261 261 261 261 261 261 261 261 260 260 259 259 258 258 258 258 258 258 259 259 259 260 260 260 260 261 262 262 263 263 265 266 267 267 268 268 268 268 268 268 269 269 269 269 269 269 270 270 271 272 272 272 272 273 273 273 274
273 273 273 271 270 270 269 269 269 269 268 268 267 266 265 265 264 264 264 264 263 263 262 262 261 261 261 261 261 261 261 261 260 260 260 260 260 259 259 258 258 257 257 257 258 258 258 259 259 259 259 260 260 261 262 262 262 263 264 265 266 267 267 267 267 267 268 267 267 268 268 269 269 270 270 271 271 271 271 272 272 272 272 273 273
273 272 272 271 270 269 269 269 269 268 268 267 266 265 265 264 264 264 263 263 263 262 262 261 261 261 261 261 261 261 261 260 260 260 260 259 259 259 258 258 257 257 257 257 257 258 258 258 259 259 259 260 260 261 261 262 263 263 264 265 265 266 266 266 266 267 267 267 267 268 268 269 269 270 270 270 270 270 270 270 271 271 271 272 273
272 271 271 270 269 269 268 268 268 268 267 267 266 265 264 264 264 263 263 263 262 262 262 261 261 261 261 261 260 260 260 260 260 260 259 259 258 258 257 257 257 256 257 257 257 257 258 258 258 258 259 260 260 261 262 262 263 263 263 264 264 265 265 266 266 266 266 266 267 267 267 268 268 269 269 269 269 269 270 270 270 271 271 272 273
272 271 270 269 269 268 268 267 267 267 267 266 265 265 264 263 263 263 262 262 262 262 261 261 260 260 260 260 260 260 260 260 260 260 259 258 258 258 257 257 257 256 256 256 256 257 257 257 258 259 259 260 260 261 262 262 262 262 263 263 264 265 265 265 265 265 265 266 266 267 267 268 268 268 268 269 269 269 269 270 270 270 271 272 273
271 270 269 269 268 267 267 266 266 266 266 265 264 264 263 263 263 262 262 262 261 261 261 260 260 260 260 260 260 259 259 259 259 259 259 258 258 257 257 256 256 256 256 256 256 256 257 258 258 259 259 260 261 261 261 261 262 262 263 264 264 265 265 264 264 264 265 266 266 267 267 267 268 268 268 268 269 269 269 269 270 270 270 271 272
270 269 269 268 268 267 267 266 266 266 265 264 264 263 263 262 262 262 262 261 261 260 260 260 260 260 259 259 259 259 259 259 259 259 259 258 258 257 256 256 256 256 256 256 257 257 258 259 259 260 260 261 261 261 261 261 262 262 263 263 263 264 263 263 264 264 265 266 266 267 267 267 267 268 268 268 268 268 269 269 269 270 270 271 272
269 269 268 268 267 267 266 265 265 265 264 264 263 263 262 262 262 261 261 260 260 260 259 259 259 259 259 258 258 258 259 259 259 258 258 258 258 257 256 256 256 256 256 257 257 258 259 260 260 260 261 260 260 260 260 261 261 262 262 262 262 262 263 263 264 265 265 265 266 266 266 266 266 267 267 267 268 268 268 269 269 269 270 271 271
269 268 268 267 267 266 266 265 264 264 263 263 263 262 262 261 261 261 260 260 260 259 258 258 258 258 258 258 258 258 258 258 258 258 258 257 257 257 256 256 256 256 256 256 257 258 259 259 260 260 260 259 259 259 259 260 261 260 260 261 262 262 263 264 264 264 264 264 264 264 265 265 265 266 266 267 267 267 268 268 268 269 270 271 271
Wind_Speed
8 8 7 8 9 10 11 12 14 16 17 20 23 26 27 27 28 29 29 29 28 27 27 27 28 29 30 30 30 30 31 32 33 32 31 32 33 35 36 37 38 39 41 40 39 38 37 36 37 37 33 29 26 24 19 11 9 12 12 19 29 30 28 27 27 27 23 16 11 12 15 17 19 21 22 23 24 24 24 25 25 25 26 27 28
9 9 8 8 9 10 11 12 14 16 17 19 22 25 26 26 27 27 27 28 26 24 23 23 23 23 25 26 26 26 27 28 30 30 29 29 31 32 33 35 36 37 38 39 39 38 37 36 36 36 35 31 29 27 24 19 11 7 9 10 14 21 26 30 30 25 20 15 9 6 7 12 16 18 20 21 22 23 24 24 25 26 26 27 28
6 8 10 10 10 10 11 12 13 15 17 17 19 23 24 25 25 26 26 27 25 22 20 20 20 20 20 22 23 23 24 23 25 27 27 28 29 29 30 32 33 35 35 37 38 38 37 36 35 34 34 33 31 30 29 28 23 15 7 7 9 10 15 25 34 30 21 16 10 5 4 5 8 13 16 20 21 22 23 24 25 26 27 27 28
4 6 10 12 12 11 11 12 12 14 16 16 18 21 23 23 24 25 25 26 25 21 18 17 18 19 19 20 21 21 22 22 23 24 25 26 28 28 28 29 30 31 33 34 34 35 35 35 34 32 33 34 33 31 32 31 29 25 17 10 7 8 9 13 26 33 28 21 10 1 1 3 5 7 10 16 20 21 22 24 25 25 26 26 27
4 5 9 13 13 12 12 12 12 14 14 15 17 20 21 22 23 24 24 24 23 20 16 16 18 20 21 21 22 22 23 23 24 25 25 25 27 27 27 27 27 28 29 31 31 32 33 33 33 32 32 32 33 32 31 31 30 29 25 17 12 8 8 10 15 26 29 28 19 7 2 3 3 3 6 10 17 22 23 24 25 25 25 25 25
6 7 10 14 15 14 13 11 12 13 12 13 16 18 19 20 21 22 22 22 21 18 15 15 18 21 22 22 23 23 23 24 24 25 26 25 25 26 26 25 26 26 27 28 29 30 31 31 32 32 32 31 31 32 31 30 30 30 28 23 18 14 9 9 11 18 20 24 24 18 12 6 4 6 5 4 11 19 23 24 25 25 26 26 26
6 9 12 14 14 14 13 12 13 13 11 12 15 17 18 18 19 19 20 19 18 17 15 16 18 19 20 20 21 22 22 24 24 24 26 26 24 24 25 25 24 24 24 25 26 27 28 29 30 31 31 30 30 30 31 31 30 28 28 26 24 19 15 14 13 13 15 19 20 17 13 7 10 13 6 2 4 10 18 22 24 25 25 26 27
4 5 10 14 15 15 15 13 13 12 9 11 14 16 16 16 17 17 18 17 17 16 16 17 18 18 19 19 20 21 22 23 24 23 23 24 24 23 24 24 23 23 23 23 23 24 25 27 28 28 29 29 29 29 28 28 29 28 27 27 26 24 21 18 16 15 12 16 18 16 13 8 11 14 12 10 5 2 8 14 19 23 24 26 27
6 6 10 15 16 16 16 15 14 11 8 10 13 14 14 15 15 16 17 16 16 16 16 16 17 18 19 19 20 21 22 22 23 23 22 22 22 22 22 21 21 22 21 21 21 22 23 24 25 25 26 27 27 27 26 26 27 28 28 27 27 26 25 21 17 18 17 14 16 18 16 11 9 9 11 12 6 3 4 4 11 16 18 26 29
7 10 14 17 17 18 17 16 15 10 7 10 13 14 14 15 15 16 16 16 15 15 15 15 16 18 19 19 20 21 21 21 21 21 21 21 21 21 21 20 20 20 20 20 21 21 21 22 22 22 23 24 24 25 25 25 25 26 26 26 26 26 26 24 21 19 18 17 15 15 15 13 10 7 6 8 4 3 3 2 8 12 11 20 31
5 8 14 16 17 18 16 16 15 10 7 10 13 13 13 14 14 15 16 16 15 15 15 15 16 17 18 19 19 19 19 20 20 20 20 19 19 20 21 21 20 19 19 19 20 20 21 21 21 20 21 21 22 23 23 23 24 24 24 25 25 25 26 26 24 22 20 18 18 18 15 14 12 9 6 7 4 1 1 1 7 15 15 18 27
4 5 9 13 15 17 16 16 15 10 9 10 12 13 12 12 13 14 15 15 14 15 15 16 17 18 18 18 18 18 18 18 18 18 18 18 18 19 20 21 21 20 20 19 19 20 21 22 21 20 19 20 20 20 21 21 22 23 23 24 23 23 24 25 25 25 24 20 19 21 20 15 15 17 12 9 8 4 1 1 2 9 12 15 20
5 4 5 10 13 15 17 17 14 11 10 10 12 12 12 13 14 14 15 14 13 14 15 17 19 19 18 18 17 17 17 17 16 17 16 17 18 18 19 19 19 20 20 20 19 19 20 21 21 21 20 19 19 19 19 19 20 21 21 22 22 21 22 23 23 23 24 22 20 20 21 20 16 14 16 16 14 9 5 2 1 2 3 7 13
5 4 5 9 13 16 17 17 15 12 11 10 12 14 13 14 15 15 16 14 13 13 15 18 20 20 19 18 17 17 16 16 16 16 16 18 19 18 18 18 18 18 19 19 20 20 20 19 19 20 21 20 19 18 18 18 18 19 19 20 20 20 20 21 21 21 22 22 22 21 21 21 20 16 13 17 19 16 12 8 4 3 3 3 7
6 6 7 11 16 17 17 17 15 13 12 11 13 15 15 15 15 15 16 14 13 14 16 19 20 20 19 18 18 17 17 16 16 16 17 19 19 19 20 19 17 17 17 18 19 20 20 18 17 18 19 20 20 19 18 17 17 18 18 18 18 18 19 20 20 20 21 21 21 22 22 22 21 19 16 14 17 20 19 16 11 7 6 4 4
7 6 7 13 18 18 18 17 16 14 13 14 14 15 15 15 15 15 15 15 15 16 18 20 21 21 20 20 19 18 18 17 17 17 18 19 19 20 20 19 17 17 17 18 20 20 19 19 19 19 19 19 20 19 18 17 17 17 17 17 18 17 18 19 19 19 20 21 20 21 22 23 22 20 18 17 15 16 21 20 17 12 9 5 4
8 7 7 13 17 17 17 18 16 15 15 16 16 15 15 15 14 14 14 15 17 18 20 22 22 21 21 20 20 19 18 18 19 20 21 20 20 20 20 19 19 19 19 20 20 19 19 20 21 22 22 21 20 19 18 17 17 18 18 18 18 17 18 18 18 18 19 19 20 20 20 21 22 21 20 19 18 16 17 20 22 19 14 6 4
8 8 9 14 17 17 18 18 18 17 17 17 17 16 15 15 14 13 14 15 17 20 21 23 24 22 20 19 20 20 19 20 21 23 23 22 20 20 19 19 20 21 21 21 20 18 19 20 21 22 23 22 21 19 19 18 17 17 18 19 18 18 18 18 18 18 19 19 19 20 20 20 21 21 21 21 19 19 16 16 22 25 21 14 7
6 6 6 12 15 17 18 19 18 18 18 19 18 16 15 15 14 13 14 15 17 19 21 23 24 22 20 20 19 20 21 23 24 25 25 23 21 20 20 20 22 22 21 20 20 20 20 20 20 20 21 21 20 19 19 19 18 17 17 17 17 17 18 18 18 18 18 18 19 20 19 19 20 20 21 21 21 20 19 17 17 23 26 24 17
7 5 5 9 14 17 18 19 18 18 19 20 18 17 16 15 15 15 15 16 17 19 21 22 22 21 21 21 21 22 23 24 25 25 23 22 21 21 22 22 22 20 20 21 22 22 23 22 20 19 19 19 19 18 18 18 18 18 17 17 16 16 17 18 18 18 18 18 19 20 20 19 19 20 20 20 20 20 20 19 18 18 23 28 25
6 5 5 9 14 17 19 19 18 19 19 20 19 18 16 16 16 16 16 17 19 20 21 21 20 19 20 22 23 25 25 25 24 23 22 23 23 23 23 22 21 20 21 23 25 25 25 23 20 18 17 17 18 18 18 18 18 19 19 19 18 17 18 19 19 18 18 18 19 19 20 20 19 19 19 18 18 19 19 20 20 19 18 23 26
6 5 5 9 14 17 18 18 18 19 20 19 19 18 17 18 17 17 17 18 20 21 21 21 19 19 21 23 24 25 26 25 24 23 24 24 23 23 24 23 22 23 24 25 27 26 24 21 18 18 17 18 19 19 19 19 19 19 19 20 19 19 20 22 21 20 19 19 19 19 20 20 19 18 18 17 17 17 17 19 21 20 19 18 21
6 5 7 11 15 17 17 18 18 18 19 20 20 19 19 20 18 17 18 19 21 22 21 20 19 21 22 23 24 25 25 25 25 24 25 24 25 25 25 24 24 25 26 26 26 23 21 19 19 19 18 18 18 18 18 19 19 20 20 20 20 20 21 23 23 23 22 21 20 19 20 20 19 18 17 17 17 17 17 18 19 19 19 21 19
6 5 8 12 15 15 16 17 17 18 19 20 21 21 20 20 18 18 20 21 22 21 21 21 22 24 24 23 23 24 24 25 25 25 25 25 26 26 25 25 25 26 26 24 22 20 20 20 19 18 17 17 17 17 17 18 19 20 20 20 21 22 22 23 24 25 24 23 21 20 19 19 19 19 18 17 17 17 17 15 16 16 17 20 21
6 6 6 9 12 13 15 16 17 18 20 21 22 22 22 21 19 19 21 22 22 21 22 23 24 24 24 23 23 24 24 24 25 26 26 27 27 27 26 25 25 25 24 22 21 21 20 18 16 16 17 17 17 17 18 19 19 20 20 20 21 22 23 23 23 24 24 23 21 21 20 19 19 19 18 18 17 18 17 16 17 18 17 18 20
8 7 6 7 10 12 15 16 17 19 20 22 23 23 23 21 20 20 21 22 22 22 23 24 24 24 24 24 24 24 24 24 25 27 28 28 28 27 25 24 24 24 23 22 23 20 16 15 17 18 18 19 19 19 18 19 19 19 19 21 22 23 24 24 24 24 23 23 22 21 21 21 20 20 19 19 19 19 19 19 18 18 17 17 18
8 7 7 8 8 11 14 17 18 20 22 23 24 24 23 21 21 21 22 22 23 23 24 24 23 24 24 24 25 25 24 24 26 27 29 29 27 24 23 25 26 25 25 24 21 16 14 17 20 21 22 22 21 19 19 18 18 19 21 23 25 25 24 24 24 25 23 23 23 23 23 22 22 21 21 21 21 20 20 20 18 16 16 17 17
8 7 8 9 8 8 13 17 19 21 23 24 25 25 23 21 21 22 22 22 24 25 24 23 22 23 24 25 25 25 25 26 27 29 29 26 23 22 25 27 27 26 24 22 18 15 17 21 23 24 25 23 21 20 19 19 19 20 22 23 24 23 24 24 24 25 24 24 25 25 25 25 24 24 24 23 23 22 21 20 18 15 14 15 15
9 9 9 10 8 7 12 18 20 21 23 24 24 23 22 21 22 22 22 23 24 25 23 22 22 23 24 24 25 25 26 28 29 28 25 21 21 24 27 27 26 24 21 18 17 18 21 23 25 26 26 24 21 21 20 20 20 21 22 23 24 23 24 25 26 26 26 26 26 27 26 26 26 26 25 25 25 24 23 21 19 17 16 16 16
10 10 9 9 9 10 14 17 18 20 22 23 23 22 21 21 22 22 23 24 25 23 21 20 21 23 24 24 25 26 27 29 28 24 19 20 24 27 28 27 25 20 17 17 19 21 22 24 26 27 27 25 24 24 24 22 22 22 22 23 24 25 25 27 28 29 29 27 26 26 27 27 27 26 25 25 25 24 25 24 23 22 21 20 19
10 10 9 9 9 10 13 15 17 20 21 22 22 21 21 21 21 21 24 25 23 20 18 19 21 23 23 24 25 26 27 27 25 20 19 22 25 27 27 24 19 17 17 20 22 22 24 26 27 28 28 27 27 26 24 22 22 22 22 22 22 22 23 24 26 28 29 29 28 29 30 30 29 28 27 26 26 25 26 27 26 25 25 25 23
10 9 9 9 9 9 11 15 18 20 21 21 21 20 19 19 20 22 24 22 19 17 18 20 22 23 23 24 25 25 25 24 21 20 22 24 25 26 24 19 16 17 20 22 24 25 26 28 28 28 27 27 27 25 23 22 22 21 21 21 21 21 21 22 23 23 25 26 27 28 29 28 28 29 28 27 27 27 27 27 28 28 28 29 28
10 10 9 9 9 10 13 16 18 19 19 19 19 18 18 19 21 23 21 18 16 17 19 21 22 23 23 23 23 23 22 20 19 21 24 25 24 23 20 17 17 20 22 24 26 27 28 28 28 27 27 26 25 23 21 21 21 21 21 21 21 21 21 22 22 23 24 24 25 26 26 27 28 29 28 28 29 28 27 27 28 28 29 30 31
10 10 9 9 10 13 15 16 17 17 17 17 17 17 19 21 22 21 17 15 16 19 20 22 23 22 22 22 22 21 20 19 20 22 24 24 23 20 17 17 20 23 24 25 27 28 28 28 26 25 24 24 22 21 22 22 23 23 22 23 23 22 22 22 22 22 23 23 22 23 25 26 26 26 26 29 31 31 30 29 28 29 30 30 31
10 9 8 9 12 13 14 15 16 16 15 15 16 17 20 21 20 18 16 16 18 20 21 22 22 21 21 21 21 21 20 20 21 22 23 23 20 17 16 19 22 24 26 26 27 27 26 25 24 22 22 22 23 23 24 24 24 23 23 23 23 23 22 22 22 21 22 22 22 23 24 26 27 27 27 28 29 30 29 29 29 29 29 29 30
10 9 9 12 14 15 14 15 14 13 13 14 16 18 19 18 17 16 16 18 19 20 21 20 20 20 20 21 21 21 21 21 22 22 22 21 18 17 19 21 23 25 26 26 25 24 23 23 23 23 23 24 25 25 23 23 23 23 23 23 22 22 22 21 21 22 22 22 23 24 26 28 30 31 31 30 29 28 28 29 30 30 29 30 31
10 12 13 14 14 14 13 13 12 12 13 15 17 17 16 15 15 16 18 19 19 20 20 19 19 20 21 21 20 19 20 21 22 22 22 20 18 18 21 23 23 24 24 24 23 22 21 22 23 24 24 25 25 24 23 23 24 23 23 22 21 21 21 21 22 23 23 24 25 25 27 29 30 31 31 30 28 28 28 29 30 30 29 30 31
10 12 12 12 13 13 12 11 11 12 14 15 15 15 14 14 17 18 19 19 19 19 18 18 20 21 22 21 20 19 20 21 21 22 21 20 18 19 22 23 23 24 22 21 21 21 21 22 23 24 22 22 24 25 24 24 24 23 23 22 21 21 21 20 21 23 23 24 24 24 25 27 29 30 30 28 27 27 27 28 27 26 26 27 28
13 13 13 13 13 12 11 11 12 13 14 13 13 13 14 16 18 19 18 18 19 19 18 19 20 22 22 21 20 20 20 20 21 21 20 19 19 20 22 23 24 23 22 21 20 20 22 22 21 21 21 21 25 27 25 23 23 23 22 21 20 20 20 20 20 21 21 20 20 21 22 24 26 27 27 26 26 26 27 29 29 27 26 27 28
13 13 13 13 12 12 12 12 13 13 13 12 12 13 14 17 19 19 18 19 20 19 18 18 20 21 22 21 19 19 19 19 20 19 18 18 19 20 22 23 23 22 22 23 22 21 22 22 21 22 23 23 25 26 24 22 22 22 21 21 20 19 19 19 19 19 20 19 19 21 22 22 23 23 23 22 23 24 25 28 29 27 27 29 31
13 13 13 13 13 13 13 13 13 12 12 12 12 13 16 18 19 18 20 21 20 19 18 18 20 21 21 20 18 18 18 18 17 16 17 18 19 20 21 22 22 21 22 23 24 23 23 23 23 23 23 23 23 24 23 21 21 21 21 20 19 18 18 19 20 21 21 21 21 21 22 22 22 22 21 22 22 24 25 26 27 27 28 30 32
11 12 13 14 13 13 13 13 12 11 12 13 13 15 17 18 19 20 22 22 20 19 18 19 20 20 19 19 19 18 16 14 14 16 17 19 19 19 20 20 20 21 22 23 23 23 23 24 24 23 23 23 22 22 21 21 20 20 20 20 19 19 19 20 19 19 18 19 19 19 20 21 21 21 22 24 25 26 27 27 28 28 29 31 31
10 12 14 14 13 12 13 13 12 11 13 14 14 16 18 18 20 23 22 21 20 19 19 20 20 20 19 19 19 18 16 15 17 17 17 18 18 18 18 19 19 20 21 22 22 22 21 22 23 23 23 23 21 20 20 20 20 20 20 20 19 19 20 19 16 14 13 13 15 17 18 20 22 23 25 27 28 28 28 28 29 30 31 32 32
12 14 14 13 12 12 12 12 12 12 14 15 16 17 18 19 22 23 21 20 20 19 19 20 20 20 19 19 19 18 18 19 20 17 16 16 16 16 17 18 18 18 19 20 21 21 20 20 21 21 23 23 22 21 21 21 21 19 18 18 18 18 19 19 17 15 13 13 15 18 19 20 22 25 26 26 26 26 25 26 27 28 28 28 29
12 14 13 12 12 11 11 11 13 14 16 17 17 18 19 20 22 22 20 19 20 19 20 21 21 20 20 19 19 19 21 22 20 16 15 15 14 14 16 18 18 18 18 19 20 20 19 18 18 19 22 24 22 22 23 22 19 16 15 17 18 19 20 19 18 16 15 16 18 19 20 21 21 21 21 21 21 22 23 24 25 26 26 25 25
12 12 12 11 10 9 10 12 14 16 17 18 18 18 19 21 22 20 19 20 20 20 21 21 21 21 20 19 19 20 22 23 19 16 15 14 13 13 15 17 18 18 17 18 19 18 17 17 18 19 21 23 23 25 24 20 15 14 16 19 20 20 20 18 17 18 19 21 22 21 21 22 22 20 19 19 20 21 22 24 25 25 25 24 23
11 11 10 9 8 8 10 12 15 18 19 19 18 18 19 20 20 19 19 19 20 21 22 22 22 21 20 19 20 21 23 21 18 16 15 14 12 13 14 15 16 17 18 18 17 17 17 17 17 18 20 23 25 23 19 15 14 16 19 20 21 20 18 17 19 22 24 24 23 22 22 22 21 21 21 21 21 22 22 22 23 22 22 22 23
11 10 8 7 7 9 11 13 16 19 19 19 19 19 19 19 19 19 19 19 20 21 22 22 22 21 20 20 20 21 22 19 17 16 16 15 14 13 14 15 15 16 18 19 19 18 18 17 17 20 22 22 19 15 12 14 17 19 20 20 19 17 17 19 23 25 24 23 22 21 20 19 19 20 20 20 20 21 21 20 21 22 23 23 23
9 8 6 6 8 10 12 14 17 19 20 19 19 19 19 19 19 19 18 19 20 21 21 22 22 21 21 21 20 21 20 17 16 16 16 15 15 15 14 15 16 15 16 18 20 20 19 18 19 22 21 16 12 11 13 17 19 19 20 20 19 19 21 23 25 24 22 21 20 17 15 15 15 16 16 15 16 17 18 20 22 22 22 21 21
8 6 6 7 10 12 14 16 18 19 19 19 20 20 19 19 19 18 18 19 20 20 21 22 22 21 21 20 20 20 18 16 16 17 16 16 17 16 14 15 16 16 15 16 18 19 19 19 20 19 16 12 13 16 18 20 20 21 21 20 21 22 23 23 22 20 18 16 15 15 15 15 14 14 14 13 13 13 14 17 19 19 19 19 20
6 6 7 9 12 14 15 17 18 19 19 19 20 20 20 19 18 17 17 18 19 20 20 21 21 21 20 20 19 18 16 15 16 16 16 17 18 18 17 15 15 15 15 16 18 18 18 18 18 18 17 16 17 19 20 20 21 21 20 21 21 21 19 18 17 16 15 15 15 15 16 16 15 14 14 14 13 12 12 14 16 17 18 20 20
Wind_Direction
300 318 329 347 358 6 12 13 17 22 24 21 19 18 18 16 15 13 11 7 4 3 4 7 9 9 11 13 14 16 15 15 16 16 16 15 15 16 17 17 17 16 16 16 16 15 15 15 17 17 16 15 16 14 6 340 280 260 248 218 204 198 198 201 201 196 187 182 188 196 199 203 207 210 211 212 212 211 211 212 212 211 210 208 207
296 307 322 340 349 359 7 9 11 12 14 14 12 13 14 14 13 11 9 6 2 360 360 4 9 8 8 8 7 10 12 13 13 12 12 12 12 13 13 15 16 16 16 16 17 15 14 15 17 18 18 19 18 16 17 17 4 301 272 249 221 205 198 198 196 191 187 185 175 177 204 211 214 216 215 213 211 210 209 210 212 213 213 212 210
290 297 316 331 342 351 357 3 6 4 6 8 8 9 11 11 10 9 7 3 360 357 354 357 3 3 2 2 1 2 5 9 11 10 9 10 10 9 10 11 12 14 15 15 17 16 15 14 15 16 18 19 20 20 18 18 18 11 336 288 272 245 215 199 195 195 188 178 168 175 198 204 222 224 220 217 213 210 210 209 211 213 214 214 212
288 293 308 319 330 336 341 349 354 356 1 5 6 6 8 9 7 5 3 1 356 353 350 349 352 354 353 353 354 356 357 359 3 6 7 7 7 6 6 7 8 10 12 13 15 16 16 16 13 14 17 19 20 23 22 19 16 15 10 348 317 289 269 225 203 199 192 180 168 137 130 172 221 212 204 215 214 211 211 210 212 214 215 216 214
276 285 297 305 313 319 326 336 341 350 358 1 3 4 5 5 3 0 359 359 354 351 351 346 344 346 344 344 347 349 350 351 353 357 359 0 2 2 1 1 3 5 8 10 12 13 15 16 14 13 15 17 19 21 22 20 16 16 16 10 4 351 310 283 233 210 202 195 188 172 142 199 229 160 163 208 214 212 213 212 214 215 216 216 216
251 259 273 286 296 304 314 324 330 340 351 354 357 360 1 359 357 356 356 358 357 356 358 351 344 343 341 341 342 341 341 343 345 346 348 350 353 355 356 356 357 360 3 5 7 9 11 13 14 14 14 15 17 18 20 19 17 16 16 13 10 10 360 331 283 245 227 210 200 196 199 202 170 147 150 195 208 214 217 216 216 216 217 217 216
248 256 262 273 285 292 300 312 320 329 339 345 351 355 356 354 352 352 353 357 359 360 1 357 352 350 348 344 342 340 335 336 340 340 340 341 342 345 348 350 351 354 357 1 3 4 6 8 9 12 13 13 14 16 18 18 16 15 16 15 13 13 18 13 344 297 262 235 222 214 212 199 174 175 179 147 171 214 220 220 221 219 219 219 218
243 257 264 270 278 283 289 299 310 319 329 338 347 351 351 348 345 347 350 351 353 354 355 357 359 359 358 355 351 348 342 338 339 339 337 338 338 339 341 343 345 347 350 354 357 359 1 3 5 7 9 9 11 13 14 14 13 13 14 14 14 16 18 19 12 354 314 267 255 248 239 220 188 185 191 188 164 172 209 219 224 222 223 223 220
240 244 257 266 273 280 286 292 301 311 317 330 344 347 344 342 340 342 344 345 347 348 350 354 357 358 358 358 354 351 347 343 340 338 338 340 339 339 340 339 340 341 342 346 350 353 355 357 359 2 4 5 6 7 8 8 9 10 12 13 13 14 14 16 18 12 356 322 288 269 258 250 234 219 206 199 193 170 173 197 212 218 229 228 223
244 245 252 263 271 279 286 288 293 300 301 321 337 340 337 335 334 337 340 341 343 345 348 350 352 353 354 353 350 347 344 342 340 340 342 344 344 343 344 342 339 339 337 337 341 344 348 350 351 354 357 358 359 0 2 3 5 5 7 10 12 12 11 11 14 14 10 359 334 301 274 257 252 256 228 212 213 197 182 164 187 194 216 227 225
242 248 256 267 275 281 284 283 287 288 285 311 330 333 329 327 328 331 333 335 337 341 345 347 348 348 347 347 345 343 342 341 341 342 344 346 346 345 347 346 344 343 338 335 335 336 338 340 342 345 348 350 351 354 356 358 360 0 1 3 6 9 9 7 9 10 10 8 359 341 310 272 252 258 252 227 230 240 169 157 190 198 206 220 223
235 244 259 268 277 282 281 281 283 276 274 303 326 328 321 320 322 325 327 329 331 337 341 342 343 342 340 341 340 339 339 338 338 340 342 343 343 342 344 344 344 343 342 340 337 333 332 332 332 334 338 340 343 346 348 350 353 354 356 357 359 2 3 4 5 6 7 5 0 352 340 315 271 255 256 247 243 262 302 34 172 200 210 221 224
232 230 251 262 269 275 276 278 277 266 270 299 321 324 316 315 318 320 324 326 327 333 337 337 337 335 334 334 335 335 334 332 332 333 336 338 337 337 338 338 337 338 339 338 337 335 330 326 325 325 328 331 332 335 338 342 344 347 351 352 353 355 356 357 360 1 3 3 357 350 347 342 322 280 260 249 246 255 265 273 250 213 221 230 228
232 231 244 256 263 268 270 272 269 259 268 293 313 319 311 308 311 313 317 322 325 329 332 333 331 328 327 327 328 329 328 327 326 326 329 331 331 331 331 331 330 330 333 332 332 332 327 323 320 318 320 322 323 324 327 331 335 339 342 344 346 347 347 349 351 352 354 356 355 351 345 342 343 334 294 256 242 239 239 236 235 259 276 260 243
233 239 244 251 261 265 266 267 262 255 265 285 302 311 306 298 300 304 309 316 321 325 328 330 328 323 319 320 321 323 322 322 321 321 324 324 324 324 324 325 324 323 325 325 326 326 322 319 315 312 312 313 314 314 315 319 324 328 331 335 337 338 339 342 344 344 345 347 349 349 345 339 338 342 334 299 258 239 233 231 227 235 251 252 256
233 237 245 251 257 260 261 261 255 251 263 277 290 304 301 290 289 294 302 311 317 323 326 328 327 319 313 313 316 319 319 318 317 317 318 319 317 317 318 318 316 316 316 315 318 320 319 317 314 311 309 307 308 307 306 308 312 316 319 322 326 328 330 334 337 338 338 339 342 342 342 340 337 334 334 329 304 262 240 230 221 220 231 237 234
232 231 235 245 251 255 258 257 251 250 263 272 283 299 296 283 282 288 296 305 312 319 323 325 324 315 306 306 311 316 318 318 316 315 315 314 310 310 312 313 311 310 309 308 312 317 318 318 315 312 310 309 306 302 299 300 303 305 307 310 315 317 319 323 327 330 332 332 334 336 337 335 334 332 325 325 326 305 264 236 223 220 222 223 228
232 232 234 241 247 253 256 255 248 251 265 273 280 293 290 276 276 285 293 300 308 315 319 321 321 311 301 303 308 313 316 316 315 314 312 309 305 306 308 308 308 306 303 305 311 315 316 317 315 311 309 307 304 299 292 293 296 296 298 301 303 306 309 313 316 320 325 326 325 328 332 329 328 329 326 319 319 319 304 263 235 226 224 225 229
231 229 231 237 244 251 253 251 247 253 268 274 277 287 283 270 270 279 287 295 304 310 314 318 317 307 299 304 309 311 314 314 313 311 309 304 303 306 307 307 307 303 300 303 309 312 313 313 310 306 304 302 300 295 288 288 290 290 291 291 291 295 298 300 305 309 313 316 319 320 322 324 322 321 322 321 316 314 315 302 266 238 228 228 230
228 223 221 234 243 250 251 248 248 260 273 273 273 281 275 264 267 276 284 293 300 305 309 312 310 300 296 302 307 309 311 311 310 308 304 302 304 307 308 308 305 298 298 304 308 310 310 309 305 299 298 296 294 292 287 284 286 286 286 284 283 284 287 289 293 297 301 305 309 312 312 314 317 316 315 316 316 312 311 310 299 268 239 230 230
224 220 221 238 246 250 250 249 253 265 273 270 270 275 269 260 265 274 283 293 298 302 306 306 301 293 293 299 304 308 310 309 307 304 301 302 306 307 307 306 301 296 301 305 307 308 308 305 301 296 293 292 291 290 288 284 283 283 283 283 282 279 279 283 286 286 290 295 297 300 303 305 308 309 308 308 309 310 310 306 303 298 270 240 230
219 219 225 238 245 247 246 249 256 265 268 267 269 271 263 258 264 274 281 290 296 301 303 301 294 288 291 298 302 306 308 306 303 300 301 304 305 306 306 303 298 299 303 304 305 306 305 302 298 294 292 290 289 288 287 285 282 281 281 281 281 280 279 281 282 281 282 286 289 289 292 298 301 299 299 302 301 302 306 304 299 301 295 272 243
221 223 232 238 243 243 244 250 256 262 266 268 269 266 259 259 265 272 279 288 295 298 299 295 287 286 293 298 301 304 305 303 301 301 302 304 305 305 304 300 298 300 302 303 303 302 300 299 296 294 293 291 289 288 287 286 284 284 283 281 280 279 278 278 279 280 280 280 280 279 281 287 291 291 291 294 296 296 298 299 298 296 295 292 278
230 230 240 242 243 242 243 249 255 260 265 266 266 262 257 258 264 270 278 288 293 295 293 288 286 289 295 298 299 302 302 300 300 301 302 303 304 304 301 298 299 300 301 301 300 298 297 297 295 295 295 294 291 289 287 287 286 286 285 283 282 279 277 277 276 277 279 278 274 271 274 278 281 284 286 287 291 294 293 289 290 294 292 292 293
236 235 241 240 240 241 243 248 253 259 263 263 262 258 253 256 262 269 278 287 291 290 287 285 287 292 295 297 298 299 299 298 299 300 302 303 303 301 299 299 299 300 300 298 297 296 295 294 295 297 298 296 292 289 286 285 285 285 285 285 285 283 279 277 276 275 277 276 272 269 269 273 275 275 279 283 285 287 288 286 284 288 292 291 293
234 234 236 236 239 241 244 250 254 259 262 261 258 254 252 256 261 268 279 286 287 286 283 285 289 292 294 295 297 297 297 297 298 299 301 301 301 300 299 300 302 301 298 296 296 294 292 294 299 301 300 297 293 289 286 285 283 283 284 288 290 288 283 279 277 276 274 270 268 269 270 271 271 271 273 277 282 284 285 285 285 285 287 292 292
232 233 235 239 241 243 247 253 258 262 264 262 258 252 251 255 261 271 280 284 284 283 282 284 289 292 292 293 294 295 296 298 299 300 301 300 299 299 301 303 303 300 297 296 293 289 293 303 306 306 304 300 296 290 287 284 282 281 284 289 291 288 284 281 279 276 272 268 268 269 269 268 267 270 272 273 275 279 280 280 281 282 282 285 287
231 229 234 239 239 242 248 253 259 263 264 262 256 251 251 257 265 274 280 281 282 281 279 284 288 290 291 291 291 293 296 299 300 300 300 299 297 300 305 305 302 299 299 294 288 291 302 309 310 308 306 301 295 290 286 283 281 282 284 285 285 284 283 281 279 276 272 269 270 270 269 268 266 267 268 269 270 270 273 275 275 277 278 277 278
234 232 232 236 236 237 242 248 254 257 259 257 252 248 253 260 267 275 279 281 282 278 277 284 288 288 289 289 290 293 297 301 302 301 297 294 298 305 306 304 301 300 295 288 291 303 308 309 309 307 304 299 291 286 283 282 281 280 280 279 276 275 276 276 276 276 274 271 271 270 269 268 269 269 268 269 270 268 267 267 268 270 272 273 273
232 233 231 230 232 233 239 246 251 253 254 251 247 248 255 262 269 275 279 283 280 274 277 285 287 286 286 287 290 294 299 303 302 297 292 295 303 308 306 303 301 295 287 290 302 308 308 308 308 304 300 295 290 286 284 281 279 277 276 275 271 268 268 267 267 267 268 269 272 273 274 273 272 270 268 266 265 264 262 261 261 264 266 267 268
238 237 233 230 231 234 240 245 249 252 251 247 247 253 259 265 270 276 282 284 276 271 279 286 284 284 284 287 293 297 301 302 297 290 292 300 305 307 305 301 294 287 292 303 308 307 307 308 305 301 297 294 292 291 288 282 280 278 276 275 273 270 267 265 263 262 263 267 271 273 274 274 272 270 268 265 262 261 260 260 259 260 262 261 260
243 239 233 232 233 235 239 244 249 252 249 247 251 258 263 268 274 282 285 280 271 273 285 286 283 283 284 289 295 299 299 295 288 289 298 303 305 306 301 291 285 293 304 309 308 306 307 306 302 298 295 294 295 294 289 283 282 281 280 277 274 272 270 267 263 262 263 266 270 271 270 269 270 270 270 267 265 263 261 261 261 260 261 260 257
239 240 238 236 236 239 242 245 248 250 249 253 260 264 269 275 282 286 283 272 271 284 289 285 283 282 286 293 296 297 293 285 284 295 303 305 305 302 292 284 293 306 310 308 307 306 305 302 299 296 294 294 297 295 288 285 285 284 283 281 277 274 271 268 265 262 261 263 265 268 269 268 268 269 269 268 268 268 265 263 263 262 262 262 260
238 237 237 238 242 246 247 246 247 249 254 261 267 270 276 283 287 283 274 270 282 290 287 283 282 284 289 294 294 292 288 282 288 301 305 305 302 293 285 291 306 311 310 307 306 304 301 299 296 295 294 294 293 291 287 287 288 287 285 282 280 277 273 270 268 265 264 263 263 264 266 268 268 267 267 268 270 270 268 266 264 263 263 263 262
244 239 235 235 238 240 240 241 244 250 258 264 270 276 281 284 281 273 269 279 288 287 283 281 282 287 292 293 291 290 286 284 293 302 304 302 296 286 290 304 310 310 307 305 303 300 298 297 294 292 292 290 288 288 288 288 289 288 288 286 284 281 277 273 271 269 268 267 267 266 266 268 269 267 265 266 267 268 267 267 265 263 263 262 261
238 233 230 230 232 230 230 236 242 251 260 267 274 280 281 278 272 268 275 285 286 282 280 280 283 288 292 292 292 289 286 288 294 300 300 296 287 287 301 310 310 308 306 302 299 297 294 292 292 291 290 288 288 289 288 289 291 290 288 287 284 281 278 275 273 272 271 269 267 264 262 262 263 265 266 266 265 264 264 265 265 262 261 261 262
232 232 233 231 229 226 226 235 242 250 260 270 278 281 276 269 269 274 281 285 283 279 278 279 285 289 292 293 292 289 288 290 293 297 296 288 283 294 308 312 309 306 303 300 296 294 291 290 290 291 290 289 289 290 290 291 292 291 289 287 284 281 279 276 274 273 272 271 269 267 265 262 260 261 264 265 264 263 261 260 259 258 257 255 259
226 224 223 219 219 220 224 235 245 252 263 274 279 276 270 267 273 280 283 282 278 274 275 279 286 291 294 294 292 291 290 289 291 295 291 283 288 302 309 310 308 303 300 297 294 292 290 290 291 292 291 289 288 290 292 292 291 290 289 287 284 281 280 278 277 275 272 271 271 272 272 269 265 264 263 263 263 263 262 261 261 264 265 261 260
225 219 218 217 219 222 225 234 245 257 270 277 274 267 267 271 277 282 282 277 272 271 274 281 288 294 294 293 293 292 290 289 291 291 285 284 296 307 309 309 307 303 300 298 295 292 291 292 292 291 289 288 290 293 296 293 290 290 288 286 284 282 280 280 279 276 274 273 273 276 278 275 273 272 268 264 262 260 259 259 260 263 266 265 264
221 222 227 227 220 218 221 230 244 262 274 275 266 263 268 273 279 281 276 272 271 274 278 285 292 294 292 292 293 292 290 291 289 285 284 290 301 307 308 308 307 305 304 302 298 294 292 291 291 291 292 292 293 297 299 295 290 289 289 287 285 282 281 283 284 281 280 279 276 276 275 274 275 277 275 272 270 265 261 260 258 255 255 259 262
221 224 228 224 217 221 231 242 255 268 272 267 262 265 270 276 279 276 271 273 278 279 282 289 293 292 291 291 293 294 294 292 288 286 290 296 302 306 308 308 308 307 305 302 299 296 293 292 294 295 296 297 297 297 299 297 292 289 289 287 284 282 282 281 279 276 271 269 269 269 270 271 273 275 276 277 276 274 273 271 267 260 257 258 260
222 222 224 220 221 231 243 254 266 271 268 266 265 268 273 277 275 271 274 282 284 282 286 292 292 290 289 290 294 295 294 289 289 293 295 296 300 306 308 308 309 307 304 300 299 298 295 295 298 299 298 299 301 300 300 300 297 292 290 287 283 280 280 280 280 278 270 266 267 268 268 271 271 271 273 275 276 276 276 277 275 271 268 266 263
220 224 227 223 226 237 247 259 272 274 271 269 269 270 273 273 272 274 282 288 286 284 289 293 291 288 287 289 293 293 289 291 296 296 291 292 299 305 308 310 309 307 304 300 298 299 297 296 298 300 300 302 304 306 304 304 304 299 293 290 286 282 283 290 300 303 296 291 291 290 285 280 275 272 273 273 273 274 275 276 277 277 276 275 271
229 234 234 227 231 244 255 266 274 275 273 272 271 272 272 271 274 281 288 289 285 287 291 291 290 288 287 290 292 288 288 296 300 295 287 290 298 303 307 310 309 306 302 299 298 298 296 295 297 299 302 305 308 310 309 309 309 306 298 294 294 293 295 303 309 307 302 302 304 302 298 290 280 274 273 274 276 280 282 282 282 284 285 283 277
238 239 235 229 236 250 260 268 275 277 276 275 275 274 272 273 280 288 290 289 287 288 289 290 289 287 287 290 289 285 289 297 298 291 286 290 295 300 305 308 309 306 299 296 296 296 295 295 296 298 300 304 308 310 311 312 314 312 306 302 302 303 305 306 304 301 300 302 301 299 299 299 296 290 289 291 293 293 291 288 286 287 289 286 276
241 238 232 232 241 254 261 267 276 282 281 278 278 277 275 280 287 290 290 290 288 286 287 289 288 286 287 289 287 286 293 297 293 286 287 289 288 291 298 304 307 305 300 295 294 294 295 295 295 294 297 301 305 307 309 312 317 319 315 310 309 310 308 304 301 302 305 307 305 304 304 305 305 302 299 298 296 292 289 288 287 285 284 281 272
248 243 237 235 241 253 262 269 278 285 287 284 282 281 282 287 290 290 290 290 287 284 285 287 285 286 288 286 284 288 293 294 287 284 288 288 282 284 292 299 302 303 300 297 293 292 292 291 290 293 296 298 300 302 305 313 319 320 316 310 307 308 307 307 308 309 310 310 307 304 303 301 300 299 296 294 293 290 287 285 284 284 282 277 271
262 252 241 240 247 260 269 275 281 288 291 288 284 286 290 292 292 291 291 289 284 284 285 285 285 285 284 282 284 288 291 288 282 283 288 287 283 284 289 294 300 302 299 295 293 291 288 285 286 291 293 293 295 299 308 317 317 313 309 305 304 305 308 310 309 307 306 304 301 298 299 301 302 299 294 292 292 292 288 283 282 284 285 281 276
270 256 245 252 266 274 279 280 285 292 294 290 289 292 295 296 295 294 292 287 284 285 285 285 285 283 281 282 285 287 286 281 278 283 289 287 284 287 291 295 302 305 299 292 290 289 286 286 286 286 287 291 300 309 312 312 308 303 303 304 304 304 306 304 301 299 298 297 298 299 302 306 306 299 291 286 288 289 289 287 287 287 286 285 281
272 258 261 274 281 285 285 285 290 296 296 293 293 296 299 300 299 297 294 289 286 286 285 284 284 282 281 283 286 286 282 277 278 284 288 287 285 286 289 293 300 303 300 295 292 289 287 290 292 291 295 308 315 312 310 308 305 304 305 304 302 302 301 297 295 298 299 298 300 303 302 301 302 298 291 283 282 287 289 289 290 289 285 285 285
278 272 281 289 290 291 290 291 296 300 299 298 298 300 302 304 303 302 298 293 289 286 283 282 282 281 282 284 284 282 278 275 280 285 286 284 286 288 291 294 300 305 306 305 302 296 293 296 300 303 311 317 315 311 310 308 307 308 308 305 304 303 300 297 303 312 312 305 302 299 294 291 291 290 287 282 281 286 289 291 294 292 288 289 289